• Em Portugal
  • Lista de países
  • Para 7 dias
  • Temperatura da água
  • Mapas de satélite
  • Mapa do tempo
  • Widgets de tempo
  • user-avatar
    Iniciar Sessão

    Previsão horária em Aksaraj

    Hoje, 11 Dezembro, Segunda-feira

    Tempo Temperatura Precipitação Vento Pressão Humidade
    00:00 +4°C° 0 mm 3 m/s 680 mmHg 69%
    01:00 +4°C° 0 mm 3 m/s 680 mmHg 70%
    02:00 +4°C° 0 mm 3 m/s 681 mmHg 69%
    03:00 +4°C° 0 mm 3 m/s 681 mmHg 70%
    04:00 +4°C° 0 mm 3 m/s 681 mmHg 70%
    05:00 +5°C° 0 mm 2 m/s 681 mmHg 70%
    06:00 +5°C° 0 mm 2 m/s 682 mmHg 70%
    07:00 +5°C° 0 mm 2 m/s 682 mmHg 69%
    08:00 +6°C° 0 mm 2 m/s 683 mmHg 69%
    09:00 +7°C° 0 mm 2 m/s 683 mmHg 64%
    10:00 +9°C° 0 mm 2 m/s 683 mmHg 59%
    11:00 +10°C° 0 mm 2 m/s 683 mmHg 53%
    12:00 +12°C° 0 mm 2 m/s 683 mmHg 51%
    13:00 +12°C° 0 mm 2 m/s 683 mmHg 48%
    14:00 +13°C° 0 mm 2 m/s 683 mmHg 45%
    15:00 +11°C° 0 mm 1 m/s 683 mmHg 50%
    16:00 +10°C° 0 mm 1 m/s 682 mmHg 55%
    17:00 +8°C° 0 mm 1 m/s 682 mmHg 60%
    18:00 +8°C° 0 mm 1 m/s 682 mmHg 60%
    19:00 +8°C° 0 mm 1 m/s 682 mmHg 59%
    20:00 +7°C° 0 mm 1 m/s 682 mmHg 59%
    21:00 +7°C° 0 mm 1 m/s 682 mmHg 58%
    22:00 +7°C° 0 mm 1 m/s 682 mmHg 57%
    23:00 +6°C° 0 mm 1 m/s 682 mmHg 57%

    Amanhã, 12 Dezembro, Terça-feira

    Tempo Temperatura Precipitação Vento Pressão Humidade
    00:00 +6°C° 0 mm 1 m/s 682 mmHg 56%
    01:00 +6°C° 0 mm 1 m/s 682 mmHg 55%
    02:00 +6°C° 0 mm 1 m/s 682 mmHg 54%
    03:00 +5°C° 0 mm 1 m/s 682 mmHg 54%
    04:00 +5°C° 0 mm 1 m/s 682 mmHg 53%
    05:00 +5°C° 0 mm 1 m/s 682 mmHg 52%
    06:00 +6°C° 0 mm 1 m/s 682 mmHg 49%
    07:00 +6°C° 0 mm 1 m/s 682 mmHg 47%
    08:00 +7°C° 0 mm 1 m/s 682 mmHg 44%
    09:00 +9°C° 0 mm 1 m/s 683 mmHg 38%
    10:00 +10°C° 0 mm 0 m/s 683 mmHg 32%
    11:00 +12°C° 0 mm 0 m/s 683 mmHg 26%
    12:00 +14°C° 0 mm 1 m/s 683 mmHg 27%
    13:00 +14°C° 0 mm 1 m/s 683 mmHg 27%
    14:00 +15°C° 0 mm 1 m/s 682 mmHg 28%
    15:00 +13°C° 0 mm 1 m/s 682 mmHg 31%
    16:00 +11°C° 0 mm 1 m/s 682 mmHg 35%
    17:00 +9°C° 0 mm 2 m/s 681 mmHg 39%
    18:00 +9°C° 0 mm 1 m/s 681 mmHg 39%
    19:00 +9°C° 0 mm 1 m/s 681 mmHg 40%
    20:00 +8°C° 0 mm 1 m/s 681 mmHg 41%
    21:00 +8°C° 0 mm 1 m/s 681 mmHg 41%
    22:00 +8°C° 0 mm 1 m/s 680 mmHg 41%
    23:00 +7°C° 0 mm 1 m/s 680 mmHg 42%

    Depois de amanhã, 13 Dezembro, Quarta-feira

    Tempo Temperatura Precipitação Vento Pressão Humidade
    00:00 +7°C° 0 mm 1 m/s 680 mmHg 43%
    01:00 +7°C° 0 mm 1 m/s 680 mmHg 43%
    02:00 +7°C° 0 mm 1 m/s 680 mmHg 44%
    03:00 +7°C° 0 mm 1 m/s 680 mmHg 45%
    04:00 +6°C° 0 mm 1 m/s 680 mmHg 47%
    05:00 +6°C° 0 mm 1 m/s 679 mmHg 48%
    06:00 +6°C° 0 mm 1 m/s 680 mmHg 48%
    07:00 +5°C° 0 mm 0 m/s 680 mmHg 48%
    08:00 +6°C° 0 mm 0 m/s 680 mmHg 48%
    09:00 +7°C° 0 mm 0 m/s 680 mmHg 42%
    10:00 +9°C° 0 mm 0 m/s 681 mmHg 37%
    11:00 +11°C° 0 mm 0 m/s 681 mmHg 31%
    12:00 +12°C° 0 mm 1 m/s 681 mmHg 30%
    13:00 +13°C° 0 mm 1 m/s 680 mmHg 30%
    14:00 +13°C° 0 mm 1 m/s 680 mmHg 29%
    15:00 +12°C° 0 mm 1 m/s 679 mmHg 35%
    16:00 +9°C° 0 mm 0 m/s 679 mmHg 41%
    17:00 +8°C° 0 mm 0 m/s 679 mmHg 47%
    18:00 +7°C° 0 mm 0 m/s 679 mmHg 47%
    19:00 +7°C° 0 mm 0 m/s 679 mmHg 48%
    20:00 +6°C° 0 mm 0 m/s 679 mmHg 49%
    21:00 +6°C° 0 mm 0 m/s 679 mmHg 49%
    22:00 +7°C° 0 mm 1 m/s 679 mmHg 49%
    23:00 +6°C° 0 mm 1 m/s 678 mmHg 49%

    14 Dezembro, Quinta-feira

    Tempo Temperatura Precipitação Vento Pressão Humidade
    00:00 +6°C° 0 mm 1 m/s 678 mmHg 49%
    01:00 +6°C° 0 mm 1 m/s 678 mmHg 50%
    02:00 +6°C° 0 mm 1 m/s 678 mmHg 51%
    03:00 +5°C° 0 mm 1 m/s 677 mmHg 51%
    04:00 +5°C° 0 mm 1 m/s 677 mmHg 52%
    05:00 +5°C° 0 mm 1 m/s 677 mmHg 52%
    06:00 +6°C° 0 mm 1 m/s 677 mmHg 50%
    07:00 +6°C° 0 mm 1 m/s 678 mmHg 48%
    08:00 +7°C° 0 mm 1 m/s 678 mmHg 47%
    09:00 +9°C° 0 mm 1 m/s 678 mmHg 42%
    10:00 +11°C° 0 mm 1 m/s 678 mmHg 36%
    11:00 +13°C° 0 mm 1 m/s 678 mmHg 31%
    12:00 +14°C° 0 mm 1 m/s 678 mmHg 30%
    13:00 +14°C° 0 mm 1 m/s 677 mmHg 29%
    14:00 +14°C° 0 mm 1 m/s 677 mmHg 28%
    15:00 +13°C° 0 mm 1 m/s 677 mmHg 32%
    16:00 +11°C° 0 mm 1 m/s 676 mmHg 36%
    17:00 +9°C° 0 mm 0 m/s 676 mmHg 40%
    18:00 +8°C° 0 mm 0 m/s 676 mmHg 42%
    19:00 +8°C° 0 mm 0 m/s 676 mmHg 43%
    20:00 +7°C° 0 mm 0 m/s 676 mmHg 45%
    21:00 +7°C° 0 mm 1 m/s 676 mmHg 46%
    22:00 +7°C° 0 mm 1 m/s 676 mmHg 47%
    23:00 +7°C° 0 mm 1 m/s 676 mmHg 48%

    15 Dezembro, Sexta-feira

    Tempo Temperatura Precipitação Vento Pressão Humidade
    00:00 +6°C° 0 mm 1 m/s 676 mmHg 50%
    01:00 +6°C° 0 mm 1 m/s 676 mmHg 52%
    02:00 +5°C° 0 mm 1 m/s 676 mmHg 54%
    03:00 +4°C° 0 mm 0 m/s 676 mmHg 56%
    04:00 +4°C° 0 mm 0 m/s 676 mmHg 58%
    05:00 +3°C° 0 mm 0 m/s 676 mmHg 60%
    06:00 +4°C° 0 mm 0 m/s 676 mmHg 58%
    07:00 +5°C° 0 mm 0 m/s 677 mmHg 56%
    08:00 +6°C° 0 mm 1 m/s 678 mmHg 55%
    09:00 +8°C° 0 mm 1 m/s 678 mmHg 49%
    10:00 +10°C° 0 mm 1 m/s 678 mmHg 43%
    11:00 +12°C° 0 mm 1 m/s 679 mmHg 37%
    12:00 +12°C° 0 mm 1 m/s 679 mmHg 36%
    13:00 +13°C° 0 mm 1 m/s 679 mmHg 35%
    14:00 +13°C° 0 mm 1 m/s 679 mmHg 34%
    15:00 +11°C° 0 mm 1 m/s 678 mmHg 40%
    16:00 +9°C° 0 mm 0 m/s 678 mmHg 45%
    17:00 +7°C° 0 mm 0 m/s 678 mmHg 51%
    18:00 +8°C° 0 mm 1 m/s 678 mmHg 50%
    19:00 +8°C° 0 mm 1 m/s 678 mmHg 50%
    20:00 +7°C° 0 mm 1 m/s 678 mmHg 49%
    21:00 +7°C° 0 mm 1 m/s 678 mmHg 48%
    22:00 +6°C° 0 mm 2 m/s 678 mmHg 47%
    23:00 +6°C° 0 mm 2 m/s 678 mmHg 45%

    16 Dezembro, Sábado

    Tempo Temperatura Precipitação Vento Pressão Humidade
    00:00 +6°C° 0 mm 2 m/s 678 mmHg 45%
    01:00 +5°C° 0 mm 2 m/s 678 mmHg 44%
    02:00 +5°C° 0 mm 2 m/s 678 mmHg 44%
    03:00 +5°C° 0 mm 2 m/s 678 mmHg 44%
    04:00 +5°C° 0 mm 2 m/s 678 mmHg 45%
    05:00 +5°C° 0 mm 2 m/s 678 mmHg 45%
    06:00 +5°C° 0 mm 2 m/s 678 mmHg 45%
    07:00 +6°C° 0 mm 2 m/s 679 mmHg 45%
    08:00 +6°C° 0 mm 2 m/s 679 mmHg 45%
    09:00 +8°C° 0 mm 2 m/s 679 mmHg 41%
    10:00 +10°C° 0 mm 2 m/s 680 mmHg 37%
    11:00 +13°C° 0 mm 2 m/s 680 mmHg 32%
    12:00 +14°C° 0 mm 2 m/s 679 mmHg 32%
    13:00 +13°C° 0 mm 3 m/s 679 mmHg 31%
    14:00 +14°C° 0 mm 3 m/s 679 mmHg 31%
    15:00 +13°C° 0 mm 2 m/s 679 mmHg 36%
    16:00 +10°C° 0 mm 2 m/s 678 mmHg 41%
    17:00 +9°C° 0 mm 2 m/s 678 mmHg 47%
    18:00 +8°C° 0 mm 2 m/s 678 mmHg 50%
    19:00 +8°C° 0 mm 2 m/s 678 mmHg 54%
    20:00 +7°C° 0 mm 2 m/s 679 mmHg 57%
    21:00 +7°C° 0 mm 2 m/s 679 mmHg 59%
    22:00 +7°C° 0 mm 2 m/s 679 mmHg 60%
    23:00 +7°C° 0 mm 3 m/s 679 mmHg 62%
    Mostrar mais